Torna al catalogo

ATLAS 5 CENTAUR DEB

AttivoHEO
NORAD 49359·DEBRIS·🇺🇸 United States

Lanciato Oct 17, 2018 da Cape Canaveral Space Force Station

Loading…

Prossimi Passaggi (prossime 24 ore)

TLE

AggiornatoSource: Space-Track

Epoca: Sep 9, 2026, 02:17 UTC

1 49359U 18079FL  26252.09576259 -.00000202  00000-0  00000-0 0  9990
2 49359  13.4202  14.5741 4717163   0.7721 359.6201  1.87005977 34357

Traccia ATLAS 5 CENTAUR DEB in tempo reale con AllMySat

Download on the App Store